MMS 2

Last updated on Wed Sep 17 2025 00:02:40 GMT+0000 (Coordinated Universal Time)

1 40483U 15011B 25259.58337963 -.00002308 00000+0 00000+0 0 9996 2 40483 67.4895 353.0780 8602820 161.6108 95.5969 0.28494933 1382
UTC large
Height (km)
Speed (km/s)
/
Latitude / Longitude
Inclination (degrees)
Orbital Period (minutes)
Azimuth
Elevation
Range (km)
Doppler Factor

Next 0 passes for location: London (51.5072 / 0.1276)

Sorry there are no passes over London.